Погода в Великой Багачке

Украина / Полтавская область     49°47′34″N   33°43′17″E
темп.,
°C
ветер,
м/с
пор.,
м/с
влажн.,
%
обл.,
%
осадки,
мм/ч
давл.,
гПа
погр.,
м
8 августа, пн
пн800:00+22св224953 0.0 101612
03:00+20ссв33547 0.0 101722
06:00+19с335794 0.0 101834
09:00+25ссв33425 0.0 1018330
12:00+31ссв33295 0.0 10181413
15:00+32ссв33235 0.0 10173023
18:00+26ссв5746100 0.0 1019405
21:00+22ссв496242 0.0 1019213
9 августа, вт
вт900:00+19с46785 0.0 1020106
03:00+17с48765 0.0 1020145
06:00+17ссв489567 0.0 1020176
09:00+23ссв456145 0.0 1020478
12:00+28с444260 0.0 10191109
15:00+30с43365 0.0 10181884
18:00+28с654440 0.0 10171404
21:00+21с511755 0.3 1018263
10 августа, ср
ср1000:00+18с411811 0.0 1018232
03:00+17с510905 0.1 1018228
06:00+16ссв5119211 0.2 1018263
09:00+22ссв7106053 0.2 1017601
12:00+26ссв8944100 0.0 10171071
15:00+26ссв8941100 0.0 10171225
18:00+24ссв81048100 0.0 10171108
21:00+20с71364100 0.0 1016519
11 августа, чт
чт1100:00+19с71366100 0.0 1016427
03:00+19ссв71371100 0.0 1015474
06:00+18ссв71480100 0.0 1015386
09:00+23св8106299 0.0 1015600
12:00+27всв7848100 0.0 1016964
15:00+32св783285 0.0 10142126
18:00+30св9941100 0.0 10141258
21:00+24в2360100 0.1 101674
12 августа, пт
пт1200:00+21ссв487898 0.6 1017135
03:00+20св4881100 0.8 1017186
06:00+19св41083100 0.0 1017231
09:00+20св41075100 0.1 1018327
12:00+22ссв61269100 0.4 1017586
15:00+26всв7952100 0.4 10171063
18:00+26св91355100 0.0 1015533
21:00+25св8155569 0.0 1014619